x

Southeast Hawaii - 205 Nm Southeast Of Hilo, Hi (51004) Weather Station

12:20pm - Thu 23rd Nov 2017 All times are HST. -10 hours from GMT.

  • Wind
    18mph, 22mph gusts
  • Sea Temp 80°f
  • Air Temp 77°f
  • Sea Pressure 1015mb
  • Southeast Hawaii - 205 Nm Southeast Of Hilo, Hi
  • Southeast Hawaii - 205 Nm Southeast Of Hilo, Hi

More Historic Weather Station data

Upgrade to MSW Pro to gain access to the past 30 days of data for over 8000 Wavebouys and Weather Stations around the globe.

Join

Comparision Forecast

View Surf forecast
   
Thu 11/23 12:20pm  -   -   -  18 22 mph 1015mb 80f 77f
12:10pm  -   -   -  20 25 mph 1015.2mb 80f 77f
12:00pm  -   -   -  18 25 mph 1015.3mb 80f 77f
11:50am 11.5ft 15s 9s 20 25 mph 1015.6mb 80f 77f
11:40am 11.5ft  -  9s 20 25 mph 1015.8mb 80f 77f
11:30am  -   -   -  20 22 mph 1016.2mb 80f 77f
11:20am  -   -   -  18 20 mph 1016.2mb 80f 77f
11:10am  -   -   -  18 22 mph 1016.6mb 80f 77f
11:00am  -   -   -  18 22 mph 1016.3mb 80f 77f
10:50am 12ft 14s 9s 18 22 mph 1016.9mb 80f 77f
10:40am 12ft  -  9s 18 22 mph 1016.8mb 80f 77f
10:30am  -   -   -  18 22 mph 1016.8mb 80f 77f
10:20am  -   -   -  16 22 mph 1017.1mb 80f 77f
10:10am  -   -   -  18 22 mph 1017.2mb 80f 77f
10:00am  -   -   -  18 22 mph 1017.1mb 80f 77f
9:50am 10.5ft 15s 9s 20 25 mph 1017mb 80f 77f
9:40am  -   -   -  20 22 mph 1016.7mb 80f 77f
9:30am  -   -   -  18 27 mph 1017mb 80f 77f
9:20am  -   -   -  18 22 mph 1017mb 80f 77f
9:10am  -   -   -  18 22 mph 1017.1mb 80f 77f
9:00am  -   -   -  16 20 mph 1017.1mb 80f 77f
8:50am 9.5ft 15s 8s 18 22 mph 1017.2mb 80f 77f
8:40am  -   -   -  16 22 mph 1016.9mb 80f 77f
8:30am  -   -   -  16 22 mph 1017.3mb 80f 77f
8:20am  -   -   -  16 20 mph 1017.2mb 80f 77f
8:10am  -   -   -  18 22 mph 1017.1mb 80f 77f
8:00am  -   -   -  18 22 mph 1016.7mb 80f 77f
7:50am 11ft 14s 9s 18 25 mph 1016.8mb 80f 77f
7:40am 11ft  -  9s 18 22 mph 1016.4mb 80f 77f
7:30am  -   -   -  20 25 mph 1016.5mb 80f 77f
7:20am  -   -   -  18 22 mph 1016.2mb 80f 77f
7:10am  -   -   -  18 22 mph 1016.1mb 80f 77f
7:00am  -   -   -  18 22 mph 1015.9mb 80f 77f
6:50am 11ft 15s 9s 18 22 mph 1016.1mb 80f 77f
6:40am  -   -   -  18 22 mph 1015.7mb 80f 77f
6:30am  -   -   -  18 25 mph 1015.5mb 80f 77f
6:20am  -   -   -  16 20 mph 1015.4mb 80f 77f
6:10am  -   -   -  18 22 mph 1015.4mb 80f 77f
6:00am  -   -   -  18 22 mph 1015.1mb 80f 77f
5:50am 8.5ft 15s 8s 18 22 mph 1015mb 80f 77f
5:40am 8.5ft  -  8s 18 22 mph 1014.8mb 80f 77f
5:30am  -   -   -  18 22 mph 1015.1mb 80f 77f
5:20am  -   -   -  16 20 mph 1015.3mb 80f 77f
5:10am  -   -   -  16 22 mph 1015.2mb 80f 77f
5:00am  -   -   -  16 20 mph 1014.9mb 80f 77f
4:50am 9.5ft 11s 8s 16 22 mph 1015.1mb 80f 77f
4:40am  -   -   -  16 20 mph 1014.8mb 80f 77f
4:30am  -   -   -  16 22 mph 1015.1mb 80f 77f
4:20am  -   -   -  16 20 mph 1014.7mb 80f 77f
4:10am  -   -   -  18 22 mph 1014.5mb 80f 77f
4:00am  -   -   -  16 22 mph 1014.3mb 80f 77f
3:50am 8.5ft 11s 8s 18 22 mph 1014.2mb 80f 77f
3:40am 8.5ft  -  8s 16 20 mph 1014.2mb 80f 77f
3:30am  -   -   -  18 22 mph 1014.4mb 80f 77f
3:20am  -   -   -  16 20 mph 1014.5mb 80f 77f
3:10am  -   -   -  18 22 mph 1014.7mb 80f 77f
3:00am  -   -   -  18 20 mph 1014.5mb 80f 77f
2:50am 8ft 11s 8s 18 22 mph 1014.6mb 80f 77f
2:40am  -   -   -  16 20 mph 1014.5mb 80f 77f
2:30am  -   -   -  18 22 mph 1014.5mb 80f 77f
2:20am  -   -   -  18 20 mph 1014.5mb 80f 77f
2:10am  -   -   -  18 22 mph 1014.7mb 80f 77f
2:00am  -   -   -  16 20 mph 1014.7mb 80f 77f
1:50am 8ft 11s 8s 18 22 mph 1015mb 80f 77f
1:40am 8ft  -  8s 16 20 mph 1015.1mb - 77f
1:30am  -   -   -  16 20 mph 1015.5mb 80f 77f
1:20am  -   -   -  16 20 mph 1015.3mb 80f 77f
1:10am  -   -   -  18 22 mph 1015.4mb 80f 77f
1:00am  -   -   -  16 25 mph 1015.2mb 80f 77f
12:50am 7.5ft 11s 7s 18 22 mph 1015.5mb 80f 77f
12:40am 7.5ft  -  7s 16 20 mph 1015.5mb 80f 77f
12:30am  -   -   -  16 22 mph 1015.7mb 80f 77f
12:20am  -   -   -  16 20 mph 1015.7mb 80f 77f
12:10am  -   -   -  16 20 mph 1016mb 80f 77f
12:00am  -   -   -  16 20 mph 1015.8mb 80f 77f
Wed 11/22 11:50pm 7.5ft 11s 7s 16 20 mph 1015.8mb - 77f
11:40pm 7.5ft  -  7s 16 20 mph 1015.7mb 80f 77f
11:30pm  -   -   -  16 20 mph 1016.1mb 80f 77f
11:20pm  -   -   -  16 18 mph 1015.9mb 80f 77f
11:10pm  -   -   -  16 22 mph 1016.2mb 80f 77f
11:00pm  -   -   -  16 18 mph 1016.1mb 80f 77f
10:50pm 7ft 10s 7s 16 20 mph 1016.2mb 80f 77f
10:40pm  -   -   -  16 18 mph 1016.2mb 80f 77f
10:30pm  -   -   -  16 22 mph 1016.6mb 80f 77f
10:20pm  -   -   -  16 20 mph 1016.3mb 80f 77f
10:10pm  -   -   -  16 20 mph 1016.6mb 80f 77f
10:00pm  -   -   -  13 18 mph 1016.4mb 80f 77f
9:50pm 8ft 11s 8s 16 22 mph 1016.8mb 80f 77f
9:40pm 8ft  -  8s 16 20 mph 1016.6mb 80f 77f
9:30pm  -   -   -  13 20 mph 1016.9mb 80f 77f
9:20pm  -   -   -  11 16 mph 1016.6mb 80f 77f
9:10pm  -   -   -  13 22 mph 1016.7mb 80f 77f
9:00pm  -   -   -  13 16 mph 1016.4mb 80f 77f
8:50pm 7ft 11s 7s 13 25 mph 1016.7mb 80f 77f
8:40pm 7ft  -  7s 13 18 mph 1016.2mb 80f 77f
8:30pm  -   -   -  13 18 mph 1016.5mb 80f 77f
8:20pm  -   -   -  13 18 mph 1016.2mb 80f 77f
8:10pm  -   -   -  13 18 mph 1016.3mb 80f 77f
8:00pm  -   -   -  11 16 mph 1016mb 80f 77f
7:50pm 7.5ft 11s 8s 13 18 mph 1016.3mb 80f 77f
7:40pm 7.5ft  -  8s 13 18 mph 1016mb 80f 77f
7:30pm  -   -   -  13 18 mph 1016.4mb 80f 77f
7:20pm  -   -   -  11 16 mph 1016.1mb 80f 77f
7:10pm  -   -   -  13 18 mph 1016.1mb 80f 77f
7:00pm  -   -   -  13 16 mph 1015.7mb 80f 77f
6:50pm 7.5ft 11s 8s 13 18 mph 1015.8mb 80f 77f
6:40pm 7.5ft  -  8s 13 18 mph 1015.4mb 80f 77f
6:30pm  -   -   -  13 20 mph 1015.5mb 80f 77f
6:20pm  -   -   -  13 18 mph 1015.1mb - 77f
6:10pm  -   -   -  13 18 mph 1015.3mb 80f 77f
6:00pm  -   -   -  13 18 mph 1014.9mb 80f 77f
5:50pm 7.5ft 11s 8s 16 20 mph 1015.1mb 80f 77f
5:40pm 7.5ft  -  8s 13 16 mph 1014.8mb 80f 77f
5:30pm  -   -   -  13 18 mph 1015mb 80f 77f
5:20pm  -   -   -  13 16 mph 1014.6mb 80f 77f
5:10pm  -   -   -  13 18 mph 1014.8mb 80f 77f
5:00pm  -   -   -  13 16 mph 1014.4mb - 77f
4:50pm 8ft 11s 8s 13 20 mph 1014.5mb - 77f
4:40pm  -   -   -  13 16 mph 1014.3mb 80f 77f
4:30pm  -   -   -  13 20 mph 1014.4mb 80f 77f
4:20pm  -   -   -  11 16 mph 1014.2mb 80f 77f
4:10pm  -   -   -  13 18 mph 1014.4mb 80f 77f
4:00pm  -   -   -  13 18 mph 1014.2mb 80f 77f
3:50pm 7.5ft 11s 8s 13 18 mph 1014.2mb - 77f
3:40pm 7.5ft  -  8s 13 18 mph 1014mb 80f 77f
3:30pm  -   -   -  13 18 mph 1014.1mb 80f 77f
3:20pm  -   -   -  13 18 mph 1013.9mb 80f 77f
3:10pm  -   -   -  13 18 mph 1013.9mb 80f 77f
3:00pm  -   -   -  13 18 mph 1013.8mb - 77f
2:50pm 7.5ft 12s 8s 13 18 mph 1013.9mb 80f 78f
2:40pm  -   -   -  13 18 mph 1013.7mb 80f 78f
2:30pm  -   -   -  13 18 mph 1013.8mb 80f 77f
2:20pm  -   -   -  13 18 mph 1013.6mb 80f 77f
2:10pm  -   -   -  13 18 mph 1013.8mb 80f 77f
2:00pm  -   -   -  13 18 mph 1013.7mb 80f 77f
1:50pm 8ft 11s 8s 13 18 mph 1013.9mb 80f 77f
1:40pm 8ft  -  8s 13 18 mph 1013.7mb 80f 77f
1:30pm  -   -   -  13 18 mph 1014mb 80f 77f
1:20pm  -   -   -  13 16 mph 1013.9mb 80f 77f
1:10pm  -   -   -  13 18 mph 1014.2mb 80f 77f
1:00pm  -   -   -  11 16 mph 1014.2mb 80f 77f
12:50pm 8.5ft 12s 9s 11 16 mph 1014.5mb 80f 77f
12:40pm 8.5ft  -  9s 9 13 mph 1014.6mb 80f 77f
12:30pm  -   -   -  9 16 mph 1014.8mb 80f 77f
12:20pm  -   -   -  11 16 mph 1014.6mb 80f 77f
12:10pm  -   -   -  11 16 mph 1014.7mb 80f 77f
12:00pm  -   -   -  11 16 mph 1014.7mb 80f 77f
11:50am 8ft 11s 8s 13 18 mph 1014.9mb 80f 77f
11:40am 8ft  -  8s 11 16 mph 1014.9mb 80f 77f
11:30am  -   -   -  11 16 mph 1015.2mb 80f 77f
11:20am  -   -   -  11 16 mph 1015.1mb 80f 77f
11:10am  -   -   -  13 18 mph 1015.3mb 80f 77f
11:00am  -   -   -  11 16 mph 1015.2mb 80f 77f
10:50am 7ft 12s 8s 11 16 mph 1015.4mb 80f 77f
10:40am 7ft  -  8s 11 16 mph 1015.4mb 80f 77f
10:30am  -   -   -  11 18 mph 1015.5mb 80f 77f
10:20am  -   -   -  11 16 mph 1015.4mb 80f 77f
10:10am  -   -   -  11 16 mph 1015.5mb 80f 77f
10:00am  -   -   -  11 13 mph 1015.4mb 80f 77f
9:50am 8.5ft 12s 9s 11 16 mph 1015.7mb - 77f
9:40am  -   -   -  9 13 mph 1015.7mb 80f 77f
9:30am  -   -   -  11 13 mph 1015.8mb 80f 77f
9:20am  -   -   -  9 13 mph 1015.7mb 80f 77f
9:10am  -   -   -  11 16 mph 1015.8mb 80f 77f
9:00am  -   -   -  11 13 mph 1015.5mb - 77f
8:50am 8ft 12s 8s 11 16 mph 1015.5mb 80f 77f
8:40am  -   -   -  11 13 mph 1015.3mb 80f 77f
8:30am  -   -   -  11 16 mph 1015.4mb 80f 77f
8:20am  -   -   -  11 13 mph 1015.2mb 80f 77f
8:10am  -   -   -  13 18 mph 1015.2mb 80f 77f
8:00am  -   -   -  11 16 mph 1015mb 80f 77f
7:50am 8ft 12s 8s 13 18 mph 1015mb 80f 77f
7:40am 8ft  -  8s 11 16 mph 1014.8mb 80f 77f
7:30am  -   -   -  11 16 mph 1014.9mb 80f 77f
7:20am  -   -   -  11 16 mph 1014.5mb 80f 77f
7:10am  -   -   -  11 16 mph 1014.6mb 80f 77f
7:00am  -   -   -  11 16 mph 1014.3mb 80f 77f
6:50am 8.5ft 13s 8s 13 16 mph 1014.2mb 80f 77f
6:40am 8.5ft  -  8s 11 16 mph 1014mb 80f 77f
6:30am  -   -   -  13 18 mph 1013.9mb 80f 77f
6:20am  -   -   -  13 18 mph 1013.7mb 80f 77f
6:10am  -   -   -  13 18 mph 1013.8mb 80f 77f
6:00am  -   -   -  13 18 mph 1013.5mb 80f 77f
5:50am 8.5ft 13s 8s 13 18 mph 1013.6mb 80f 77f
5:40am 8.5ft  -  8s 13 18 mph 1013.3mb 80f 77f
5:30am  -   -   -  16 18 mph 1013.3mb 80f 77f
5:20am  -   -   -  13 18 mph 1013.2mb 80f 77f
5:10am  -   -   -  13 18 mph 1013.4mb 80f 77f
5:00am  -   -   -  13 16 mph 1013.2mb 80f 77f
4:50am 8.5ft 12s 9s 13 16 mph 1013.2mb 80f 77f
4:40am 8.5ft  -  9s 11 16 mph 1013mb 80f 77f
4:30am  -   -   -  11 16 mph 1013.1mb 80f 77f
4:20am  -   -   -  11 16 mph 1012.9mb 80f 77f
4:10am  -   -   -  13 18 mph 1012.9mb 80f 77f
4:00am  -   -   -  13 16 mph 1012.7mb 80f 77f
3:50am 8ft 13s 8s 13 18 mph 1012.9mb 80f 77f
3:40am 8ft  -  8s 13 16 mph 1012.7mb 80f 77f
3:30am  -   -   -  13 18 mph 1013mb 80f 77f
3:20am  -   -   -  13 18 mph 1013mb 80f 77f
3:10am  -   -   -  13 18 mph 1013.3mb 80f 77f
3:00am  -   -   -  13 16 mph 1013mb - 77f
2:50am 8.5ft 12s 8s 13 18 mph 1013.2mb 80f 77f
2:40am 8.5ft  -  8s 13 18 mph 1013.2mb 80f 77f
2:30am  -   -   -  13 16 mph 1013.4mb 80f 77f
2:20am  -   -   -  13 18 mph 1013.3mb 80f 77f
2:10am  -   -   -  13 18 mph 1013.4mb 80f 77f
2:00am  -   -   -  13 18 mph 1013.3mb 80f 77f
1:50am 10.5ft 11s 9s 16 18 mph 1013.6mb 80f 77f
1:40am  -   -   -  13 16 mph 1013.4mb 80f 77f
1:30am  -   -   -  13 18 mph 1013.7mb 80f 77f
1:20am  -   -   -  13 16 mph 1013.6mb 80f 77f
1:10am  -   -   -  13 18 mph 1013.8mb 80f 77f
1:00am  -   -   -  11 16 mph 1013.7mb 80f 77f
12:50am 8ft 13s 8s 13 16 mph 1013.9mb 80f 77f
12:40am 8ft  -  8s 11 13 mph 1013.9mb 80f 77f
12:30am  -   -   -  13 18 mph 1014.2mb 80f 77f
12:20am  -   -   -  13 18 mph 1014mb 80f 77f
12:10am  -   -   -  13 18 mph 1014.2mb 80f 77f
12:00am  -   -   -  13 18 mph 1014.1mb 80f 77f
Tue 11/21 11:50pm 9.5ft 12s 9s 13 18 mph 1014.4mb 80f 77f
11:40pm  -   -   -  11 16 mph 1014.1mb 80f 77f
11:30pm  -   -   -  13 18 mph 1014.4mb 80f 77f
11:20pm  -   -   -  13 18 mph 1014.2mb 80f 77f
11:10pm  -   -   -  13 18 mph 1014.4mb 80f 77f
11:00pm  -   -   -  13 16 mph 1014.3mb 80f 77f
10:50pm 7.5ft 12s 8s 13 18 mph 1014.6mb 80f 77f
10:40pm 7.5ft  -  8s 11 16 mph 1014.4mb 80f 77f
10:30pm  -   -   -  13 18 mph 1014.6mb 80f 77f
10:20pm  -   -   -  11 16 mph 1014.3mb 80f 77f
10:10pm  -   -   -  13 18 mph 1014.5mb 80f 77f
10:00pm  -   -   -  11 16 mph 1014.3mb 80f 77f
9:50pm 8ft 12s 8s 11 16 mph 1014.6mb 80f 77f
8:50pm 9ft 13s 9s 13 16 mph 1014.3mb 80f 77f
7:50pm 10ft 13s 9s 11 16 mph 1014mb 80f 77f
7:10pm  -   -   -  13 18 mph 1013.6mb 80f 77f
7:00pm  -   -   -  11 16 mph 1013.2mb 80f 77f
6:50pm 8ft 12s 8s 11 18 mph 1013.4mb 80f 77f
6:40pm  -   -   -  11 16 mph 1013mb 80f 77f
6:30pm  -   -   -  13 18 mph 1013mb - 77f
6:20pm  -   -   -  13 16 mph 1012.6mb 80f 77f
6:10pm  -   -   -  13 18 mph 1012.7mb 80f 77f
6:00pm  -   -   -  13 16 mph 1012.5mb 80f 77f
5:50pm 8.5ft 13s 9s 13 18 mph 1012.6mb 80f 77f
5:40pm 8.5ft  -  9s 11 16 mph 1012.3mb 80f 77f
5:30pm  -   -   -  11 16 mph 1012.4mb 80f 77f
5:20pm  -   -   -  11 16 mph 1012.1mb 80f 77f
5:10pm  -   -   -  13 18 mph 1012.3mb 80f 77f
5:00pm  -   -   -  11 16 mph 1011.9mb 80f 77f
4:50pm 8ft 13s 9s 11 18 mph 1012.1mb 80f 77f
4:40pm 8ft  -  9s 11 16 mph 1011.7mb 80f 77f
4:30pm  -   -   -  11 16 mph 1011.9mb 80f 77f
4:20pm  -   -   -  11 16 mph 1011.7mb 80f 77f
4:10pm  -   -   -  11 16 mph 1011.8mb 80f 77f
4:00pm  -   -   -  11 16 mph 1011.5mb 80f 77f
3:50pm 8ft 12s 9s 11 13 mph 1011.6mb 80f 77f
3:40pm 8ft  -  9s 11 16 mph 1011.4mb 80f 77f
3:30pm  -   -   -  13 16 mph 1011.5mb 80f 77f
3:20pm  -   -   -  11 16 mph 1011.2mb 80f 77f
3:10pm  -   -   -  13 18 mph 1011.4mb 80f 77f
3:00pm  -   -   -  11 16 mph 1011.1mb - 77f
2:50pm 8.5ft 11s 9s 13 16 mph 1011.3mb 80f 77f
2:40pm 8.5ft  -  9s 11 16 mph 1011.2mb 80f 77f
2:30pm  -   -   -  11 16 mph 1011.5mb 80f 77f
2:20pm  -   -   -  11 13 mph 1011.3mb 80f 77f
2:10pm  -   -   -  9 13 mph 1011.6mb 80f 77f
2:00pm  -   -   -  9 13 mph 1011.5mb 80f 77f
1:50pm 7ft 11s 8s 9 13 mph 1011.7mb 80f 77f
1:40pm 7ft  -  8s 7 11 mph 1011.5mb 80f 77f
1:30pm  -   -   -  9 13 mph 1011.7mb 80f 77f
1:20pm  -   -   -  9 13 mph 1011.7mb 80f 77f
1:10pm  -   -   -  7 13 mph 1012mb 80f 77f
1:00pm  -   -   -  7 11 mph 1012mb 80f 77f
12:50pm 9ft 12s 8s 9 13 mph 1012.2mb 80f 77f
12:40pm  -   -   -  9 13 mph 1012.2mb 80f 77f
12:30pm  -   -   -  9 13 mph 1012.5mb 80f 77f
12:20pm  -   -   -  9 11 mph 1012.5mb 80f 77f
12:10pm  -   -   -  9 13 mph 1012.6mb 80f 77f
12:00pm  -   -   -  9 13 mph 1012.6mb 80f 77f
11:50am 8.5ft 12s 9s 9 16 mph 1012.8mb 80f 77f
11:40am 8.5ft  -  9s 9 13 mph 1012.8mb 80f 77f
11:30am  -   -   -  11 16 mph 1013.1mb 80f 77f
11:20am  -   -   -  9 13 mph 1013mb 80f 77f
11:10am  -   -   -  9 13 mph 1013.2mb 80f 77f
11:00am  -   -   -  9 13 mph 1013.2mb 80f 77f
10:50am 8ft 12s 9s 9 13 mph 1013.4mb 80f 77f
10:40am 8ft  -  9s 9 13 mph 1013.2mb 80f 77f
10:30am  -   -   -  9 13 mph 1013.5mb 80f 78f
10:20am  -   -   -  9 11 mph 1013.4mb 80f 78f
10:10am  -   -   -  9 11 mph 1013.9mb 80f 78f
10:00am  -   -   -  9 11 mph 1013.6mb 80f 78f
9:50am 10ft 13s 9s 9 13 mph 1013.7mb 80f 77f
9:40am 10ft  -  9s 9 11 mph 1013.5mb 80f 77f
9:30am  -   -   -  7 11 mph 1013.8mb 80f 77f
9:20am  -   -   -  7 11 mph 1013.7mb 80f 77f
9:10am  -   -   -  9 13 mph 1013.8mb 80f 78f
9:00am  -   -   -  7 11 mph 1013.7mb 80f 77f
8:50am 9ft 12s 9s 9 13 mph 1013.9mb - 77f
8:40am 9ft  -  9s 9 13 mph 1013.7mb 80f 77f
8:30am  -   -   -  7 11 mph 1013.8mb 80f 77f
8:20am  -   -   -  7 11 mph 1013.6mb 80f 77f
8:10am  -   -   -  7 11 mph 1013.7mb 80f 77f
8:00am  -   -   -  7 11 mph 1013.3mb 80f 77f
7:50am 8ft 12s 9s 9 13 mph 1013.2mb 80f 77f
7:40am 8ft  -  9s 9 13 mph 1012.8mb 80f 77f
7:30am  -   -   -  9 13 mph 1013.1mb 80f 77f
7:20am  -   -   -  9 11 mph 1012.9mb 80f 77f
7:10am  -   -   -  9 11 mph 1013mb 80f 77f
7:00am  -   -   -  9 11 mph 1012.5mb - 77f
6:50am 9ft 12s 9s 9 13 mph 1012.5mb 80f 77f
6:40am  -   -   -  9 13 mph 1012.2mb 80f 77f
6:30am  -   -   -  9 13 mph 1012.5mb 80f 77f
6:20am  -   -   -  9 13 mph 1012.2mb 80f 77f
6:10am  -   -   -  9 13 mph 1012.4mb 80f 77f
6:00am  -   -   -  9 13 mph 1012.1mb 80f 77f
5:50am 9ft 13s 9s 9 13 mph 1012.2mb 80f 77f
5:40am 9ft  -  9s 9 13 mph 1012mb 80f 77f
5:30am  -   -   -  9 13 mph 1012.1mb 80f 77f
5:20am  -   -   -  9 11 mph 1011.8mb 80f 77f
5:10am  -   -   -  9 13 mph 1012mb 80f 77f
5:00am  -   -   -  9 13 mph 1011.6mb 80f 77f
4:50am 8.5ft 12s 8s 7 11 mph 1011.8mb 80f 77f
4:40am 8.5ft  -  8s 9 11 mph 1011.6mb 80f 77f
4:30am  -   -   -  9 11 mph 1011.6mb - 77f
4:20am  -   -   -  9 11 mph 1011.4mb 80f 77f
4:10am  -   -   -  9 13 mph 1011.5mb 80f 77f
4:00am  -   -   -  7 11 mph 1011.3mb 80f 77f
3:50am 8ft 13s 9s 7 11 mph 1011.4mb 80f 77f
3:40am 8ft  -  9s 7 11 mph 1011.3mb 80f 77f
3:30am  -   -   -  9 11 mph 1011.4mb 80f 77f
3:20am  -   -   -  7 11 mph 1011.2mb 80f 77f
3:10am  -   -   -  9 13 mph 1011.3mb 80f 77f
3:00am  -   -   -  9 11 mph 1011.1mb - 77f
2:50am 8ft 13s 8s 9 11 mph 1011.6mb - 77f
2:40am  -   -   -  9 11 mph 1011.4mb 80f 77f
2:30am  -   -   -  7 11 mph 1011.8mb 80f 77f
2:20am  -   -   -  7 11 mph 1011.7mb 80f 77f
2:10am  -   -   -  7 11 mph 1012.1mb 80f 77f
2:00am  -   -   -  7 11 mph 1011.8mb 80f 77f
1:50am 8.5ft 13s 9s 7 11 mph 1012.3mb 80f 77f
1:40am 8.5ft  -  9s 7 11 mph 1012mb 80f 77f
1:30am  -   -   -  9 11 mph 1012.1mb 80f 77f
1:20am  -   -   -  7 11 mph 1011.9mb 80f 77f
1:10am  -   -   -  9 13 mph 1012.2mb 80f 77f
1:00am  -   -   -  9 13 mph 1011.9mb 80f 77f
12:50am 8.5ft 13s 9s 9 11 mph 1012.4mb 80f 77f
12:40am 8.5ft  -  9s 9 13 mph 1012.2mb 80f 77f
12:30am  -   -   -  11 13 mph 1012.5mb 80f 77f
12:20am  -   -   -  9 16 mph 1012.4mb 80f 77f
12:10am  -   -   -  9 13 mph 1012.7mb 80f 77f
12:00am  -   -   -  11 13 mph 1012.5mb 80f 77f
Mon 11/20 11:50pm 9ft 13s 9s 11 13 mph 1012.7mb 80f 77f
11:40pm 9ft  -  9s 9 13 mph 1012.6mb 80f 77f
11:30pm  -   -   -  9 13 mph 1012.9mb 80f 77f
11:20pm  -   -   -  9 13 mph 1012.7mb 80f 77f
11:10pm  -   -   -  9 11 mph 1013.1mb 80f 77f
11:00pm  -   -   -  9 13 mph 1012.8mb 80f 78f
10:50pm 8ft 12s 8s 9 13 mph 1013mb - 77f
10:40pm 8ft  -  8s 9 13 mph 1012.8mb 80f 78f
10:30pm  -   -   -  11 13 mph 1013.1mb 80f 77f
10:20pm  -   -   -  9 13 mph 1012.9mb 80f 78f
10:10pm  -   -   -  9 13 mph 1013.1mb 80f 77f
10:00pm  -   -   -  9 13 mph 1012.8mb 80f 78f
9:50pm 8.5ft 13s 9s 11 16 mph 1013.1mb 80f 78f
9:40pm  -   -   -  11 13 mph 1012.8mb 80f 78f
9:30pm  -   -   -  11 16 mph 1013.1mb 80f 78f
9:20pm  -   -   -  11 16 mph 1012.7mb 80f 78f
9:10pm  -   -   -  11 18 mph 1012.9mb 80f 78f
9:00pm  -   -   -  11 16 mph 1012.4mb - 78f
8:50pm 7ft 13s 8s 13 18 mph 1012.7mb 80f 78f
8:40pm  -   -   -  11 16 mph 1012.3mb 80f 78f
8:30pm  -   -   -  13 16 mph 1012.6mb 80f 77f
8:20pm  -   -   -  11 16 mph 1012.2mb 80f 77f
8:10pm  -   -   -  13 18 mph 1012.5mb 80f 77f
8:00pm  -   -   -  11 16 mph 1012.3mb 80f 77f
7:50pm 8ft 13s 9s 11 16 mph 1012.4mb 80f 77f
7:40pm 8ft  -  9s 11 16 mph 1012.1mb 80f 77f
7:30pm  -   -   -  11 16 mph 1012.3mb 80f 77f
7:20pm  -   -   -  11 16 mph 1011.8mb 80f 77f
7:10pm  -   -   -  11 16 mph 1012mb 80f 77f
7:00pm  -   -   -  9 13 mph 1011.5mb - 77f
6:50pm 7.5ft 11s 8s 11 16 mph 1011.6mb 80f 77f
6:40pm  -   -   -  9 16 mph 1011.1mb 80f 77f
6:30pm  -   -   -  11 16 mph 1011.4mb - 77f
6:20pm  -   -   -  9 13 mph 1010.9mb 80f 77f
6:10pm  -   -   -  11 13 mph 1011.1mb 80f 77f
6:00pm  -   -   -  9 11 mph 1010.7mb 80f 77f
5:50pm 8.5ft 13s 9s 9 13 mph 1010.9mb 80f 77f
5:40pm  -   -   -  9 13 mph 1010.7mb 80f 77f
5:30pm  -   -   -  11 13 mph 1010.9mb 80f 77f
5:20pm  -   -   -  11 13 mph 1010.5mb 80f 77f
5:10pm  -   -   -  9 13 mph 1010.6mb 80f 77f
5:00pm  -   -   -  9 13 mph 1010.3mb 80f 77f
4:50pm 9ft 13s 9s 9 13 mph 1010.4mb 80f 77f
4:40pm 9ft  -  9s 9 11 mph 1010.1mb 80f 77f
4:30pm  -   -   -  9 16 mph 1010.3mb 80f 77f
4:20pm  -   -   -  9 13 mph 1009.9mb 80f 77f
4:10pm  -   -   -  11 16 mph 1010mb 80f 78f
4:00pm  -   -   -  9 13 mph 1009.7mb 80f 78f
3:50pm 7.5ft 13s 8s 11 16 mph 1009.8mb 80f 78f
3:40pm 7.5ft  -  8s 9 13 mph 1009.7mb 80f 78f
3:30pm  -   -   -  11 16 mph 1009.9mb 80f 77f
3:20pm  -   -   -  9 13 mph 1009.6mb 80f 77f
3:10pm  -   -   -  11 16 mph 1009.7mb 80f 77f
3:00pm  -   -   -  9 13 mph 1009.6mb 80f 77f
2:50pm 8.5ft 13s 8s 9 13 mph 1009.7mb 80f 78f
2:40pm 8.5ft  -  8s 9 13 mph 1009.7mb 80f 78f
2:30pm  -   -   -  9 13 mph 1010mb 80f 78f
2:20pm  -   -   -  9 13 mph 1009.9mb 80f 78f
2:10pm  -   -   -  9 13 mph 1010mb 80f 78f
2:00pm  -   -   -  9 13 mph 1009.9mb 80f 78f
1:50pm 9ft 13s 8s 11 16 mph 1010mb 80f 78f
1:40pm 9ft  -  8s 11 13 mph 1009.9mb 80f 77f
1:30pm  -   -   -  11 16 mph 1010.2mb 80f 78f
1:20pm  -   -   -  11 16 mph 1010.1mb 80f 78f
1:10pm  -   -   -  11 16 mph 1010.3mb 80f 78f
1:00pm  -   -   -  9 13 mph 1010.3mb 80f 78f
12:50pm 8.5ft 13s 8s 9 13 mph 1010.6mb 80f 78f
12:40pm 8.5ft  -  8s 11 13 mph 1010.5mb 80f 78f
12:30pm  -   -   -  11 16 mph 1010.9mb 80f 78f
12:20pm  -   -   -  11 16 mph 1010.7mb 80f 78f
12:10pm  -   -   -  11 16 mph 1011mb 80f 78f
12:00pm  -   -   -  11 16 mph 1010.9mb 80f 77f
11:50am 8ft 14s 8s 13 18 mph 1011.2mb 80f 77f
11:40am 8ft  -  8s 11 16 mph 1011.1mb 80f 77f
11:30am  -   -   -  13 18 mph 1011.4mb 80f 77f
11:20am  -   -   -  11 16 mph 1011.3mb 80f 77f
11:10am  -   -   -  13 18 mph 1011.7mb 80f 77f
11:00am  -   -   -  11 18 mph 1011.7mb 80f 77f
10:50am 8ft 13s 8s 13 18 mph 1011.9mb 80f 77f
10:40am 8ft  -  8s 11 16 mph 1011.8mb 80f 77f
10:30am  -   -   -  13 18 mph 1012.1mb 80f 77f
10:20am  -   -   -  13 16 mph 1012.1mb 80f 77f
10:10am  -   -   -  13 18 mph 1012.2mb 80f 77f
10:00am  -   -   -  11 16 mph 1012.1mb 80f 77f
9:50am 8ft 14s 8s 13 18 mph 1012.4mb 80f 77f
9:40am 8ft  -  8s 13 18 mph 1012.3mb 80f 77f
9:30am  -   -   -  13 18 mph 1012.5mb 80f 77f
9:20am  -   -   -  11 16 mph 1012.3mb 80f 77f
9:10am  -   -   -  11 18 mph 1012.5mb 80f 77f
9:00am  -   -   -  11 16 mph 1012.3mb 80f 77f
8:50am 8ft 13s 8s 13 18 mph 1012.4mb 80f 77f
8:40am 8ft  -  8s 13 16 mph 1012.1mb 80f 77f
8:30am  -   -   -  13 18 mph 1012.2mb 80f 77f
8:20am  -   -   -  13 16 mph 1011.8mb 80f 77f
8:10am  -   -   -  13 18 mph 1011.9mb 80f 77f
8:00am  -   -   -  16 20 mph 1011.5mb 80f 77f
7:50am 8ft 13s 9s 16 20 mph 1011.5mb 80f 77f
7:40am 8ft  -  9s 9 16 mph 1011.3mb 80f 77f
7:30am  -   -   -  11 16 mph 1011.4mb 80f 77f
7:20am  -   -   -  11 16 mph 1011.1mb 80f 77f
7:10am  -   -   -  11 16 mph 1011.2mb 80f 77f
7:00am  -   -   -  11 13 mph 1010.9mb 80f 77f
6:50am 8ft 11s 9s 11 16 mph 1010.9mb 80f 77f
6:40am 8ft  -  9s 11 16 mph 1010.5mb 80f 77f
6:30am  -   -   -  11 16 mph 1010.6mb - 77f
6:20am  -   -   -  9 13 mph 1010.2mb 80f 77f
6:10am  -   -   -  11 16 mph 1010.1mb - 77f
6:00am  -   -   -  11 16 mph 1009.8mb 80f 77f
5:50am 8.5ft 14s 9s 13 18 mph 1009.9mb 80f 77f
5:40am 8.5ft  -  9s 11 18 mph 1009.6mb 80f 77f
5:30am  -   -   -  13 18 mph 1009.6mb 80f 77f
5:20am  -   -   -  11 18 mph 1009.3mb 80f 77f
5:10am  -   -   -  11 16 mph 1009.5mb 80f 77f
5:00am  -   -   -  9 13 mph 1009.3mb 80f 77f
4:50am 9ft 14s 9s 11 16 mph 1009.5mb 80f 77f
4:40am 9ft  -  9s 9 13 mph 1009.3mb 80f 77f
4:30am  -   -   -  9 13 mph 1009.4mb 80f 77f
4:20am  -   -   -  11 16 mph 1009.1mb 80f 77f
4:10am  -   -   -  13 18 mph 1009.2mb 80f 77f
4:00am  -   -   -  13 18 mph 1008.9mb 80f 77f
3:50am 8.5ft 12s 9s 13 18 mph 1009.1mb 80f 77f
3:40am 8.5ft  -  9s 11 16 mph 1008.9mb 80f 76f
3:30am  -   -   -  7 11 mph 1009.2mb 80f 76f
3:20am  -   -   -  7 11 mph 1009.1mb 80f 76f
3:10am  -   -   -  7 11 mph 1009.5mb 80f 76f
3:00am  -   -   -  7 11 mph 1009.3mb 80f 76f
2:50am 9ft 14s 9s 11 16 mph 1009.3mb 80f 76f
2:40am 9ft  -  9s 7 11 mph 1009.3mb 80f 77f
2:30am  -   -   -  7 11 mph 1009.5mb 80f 77f
2:20am  -   -   -  7 11 mph 1009.4mb 80f 77f
2:10am  -   -   -  9 13 mph 1009.7mb 80f 77f
2:00am  -   -   -  9 13 mph 1009.5mb 80f 77f
1:50am 8ft 13s 9s 11 16 mph 1009.7mb 80f 77f
1:40am  -   -   -  9 13 mph 1009.6mb 80f 77f
1:30am  -   -   -  11 16 mph 1009.9mb 80f 77f
1:20am  -   -   -  9 13 mph 1009.8mb 80f 77f
1:10am  -   -   -  9 13 mph 1010.1mb 80f 77f
1:00am  -   -   -  9 13 mph 1009.9mb 80f 77f
12:50am 8ft 14s 9s 9 13 mph 1010.2mb 80f 77f
12:40am 8ft  -  9s 9 13 mph 1010.1mb 80f 77f
12:30am  -   -   -  9 13 mph 1010.3mb 80f 77f
12:20am  -   -   -  9 13 mph 1010.1mb 80f 77f
12:10am  -   -   -  9 13 mph 1010.4mb 80f 77f
12:00am  -   -   -  11 16 mph 1010.2mb 80f 77f
Sun 11/19 11:50pm 8ft  -  10s 11 16 mph 1010.5mb - 77f
11:40pm 8ft 14s  -   -  mph - 80f -
11:30pm  -   -   -  9 13 mph 1010.7mb 80f 77f
11:20pm  -   -   -  9 13 mph 1010.5mb 80f 77f